When you browse on this site, cookies collect data to enhance your experience and personalize the content and advertising you see.
Visit our Privacy Policy to learn more. By continuing to use the site, you agree to this use of cookies and data.
  • In Romania
  • List of Countries
  • For 7 days
  • Water Temperature
  • Satellite Maps
  • Weather Map
  • Weather Widgets
  • user-avatar
    Login

    Hourly Weather Szeged

    Today, 24 February, Sunday

    Time Temperature Precipitation Wind Pressure Humidity
    00:00 -5°C° 0 mm 3 mps 772 mmHg 56%
    01:00 -5°C° 0 mm 3 mps 772 mmHg 56%
    02:00 -5°C° 0 mm 3 mps 772 mmHg 56%
    03:00 -5°C° 0 mm 3 mps 772 mmHg 56%
    04:00 -5°C° 0 mm 3 mps 772 mmHg 56%
    05:00 -4°C° 0 mm 2 mps 772 mmHg 56%
    06:00 -4°C° 0 mm 2 mps 772 mmHg 56%
    07:00 -4°C° 0 mm 2 mps 772 mmHg 57%
    08:00 -3°C° 0 mm 2 mps 772 mmHg 51%
    09:00 -2°C° 0 mm 2 mps 772 mmHg 45%
    10:00 +1°C° 0 mm 2 mps 772 mmHg 40%
    11:00 +1°C° 0 mm 2 mps 772 mmHg 37%
    12:00 +2°C° 0 mm 2 mps 771 mmHg 35%
    13:00 +3°C° 0 mm 2 mps 771 mmHg 32%
    14:00 +3°C° 0 mm 2 mps 771 mmHg 33%
    15:00 +3°C° 0 mm 2 mps 770 mmHg 34%
    16:00 +2°C° 0 mm 3 mps 770 mmHg 35%
    17:00 +2°C° 0 mm 2 mps 770 mmHg 39%
    18:00 +1°C° 0 mm 2 mps 770 mmHg 42%
    19:00 -1°C° 0 mm 2 mps 770 mmHg 46%
    20:00 0°C° 0 mm 1 mps 770 mmHg 46%
    21:00 0°C° 0 mm 1 mps 770 mmHg 46%
    22:00 0°C° 0 mm 1 mps 770 mmHg 47%
    23:00 0°C° 0 mm 1 mps 770 mmHg 46%

    Tomorrow, 25 February, Monday

    Time Temperature Precipitation Wind Pressure Humidity
    00:00 0°C° 0 mm 1 mps 770 mmHg 46%
    01:00 0°C° 0 mm 1 mps 770 mmHg 45%
    02:00 0°C° 0 mm 1 mps 770 mmHg 45%
    03:00 0°C° 0 mm 1 mps 769 mmHg 45%
    04:00 0°C° 0 mm 1 mps 769 mmHg 45%
    05:00 0°C° 0 mm 1 mps 769 mmHg 45%
    06:00 0°C° 0 mm 1 mps 769 mmHg 45%
    07:00 0°C° 0 mm 1 mps 769 mmHg 45%
    08:00 +2°C° 0 mm 1 mps 770 mmHg 41%
    09:00 +3°C° 0 mm 1 mps 770 mmHg 37%
    10:00 +4°C° 0 mm 2 mps 770 mmHg 33%
    11:00 +5°C° 0 mm 1 mps 770 mmHg 34%
    12:00 +6°C° 0 mm 1 mps 770 mmHg 34%
    13:00 +6°C° 0 mm 0 mps 770 mmHg 35%
    14:00 +7°C° 0 mm 1 mps 769 mmHg 36%
    15:00 +7°C° 0 mm 1 mps 769 mmHg 37%
    16:00 +7°C° 0 mm 1 mps 768 mmHg 38%
    17:00 +6°C° 0 mm 1 mps 768 mmHg 42%
    18:00 +5°C° 0 mm 1 mps 768 mmHg 46%
    19:00 +4°C° 0 mm 1 mps 768 mmHg 49%
    20:00 +4°C° 0 mm 1 mps 768 mmHg 51%
    21:00 +3°C° 0 mm 2 mps 767 mmHg 52%
    22:00 +2°C° 0 mm 2 mps 767 mmHg 54%
    23:00 +2°C° 0 mm 2 mps 767 mmHg 56%

    Day after tomorrow, 26 February, Tuesday

    Time Temperature Precipitation Wind Pressure Humidity
    00:00 +2°C° 0 mm 2 mps 767 mmHg 58%
    01:00 +1°C° 0 mm 2 mps 767 mmHg 59%
    02:00 +1°C° 0 mm 2 mps 766 mmHg 62%
    03:00 +1°C° 0 mm 2 mps 766 mmHg 64%
    04:00 +1°C° 0 mm 2 mps 766 mmHg 67%
    05:00 +1°C° 0 mm 2 mps 766 mmHg 70%
    06:00 +2°C° 0 mm 1 mps 765 mmHg 73%
    07:00 +2°C° 0 mm 1 mps 765 mmHg 76%
    08:00 +4°C° 0 mm 1 mps 765 mmHg 71%
    09:00 +5°C° 0 mm 1 mps 765 mmHg 66%
    10:00 +6°C° 0 mm 2 mps 765 mmHg 60%
    11:00 +8°C° 0 mm 2 mps 764 mmHg 57%
    12:00 +9°C° 0 mm 2 mps 764 mmHg 53%
    13:00 +10°C° 0 mm 3 mps 763 mmHg 50%
    14:00 +10°C° 0 mm 3 mps 763 mmHg 50%
    15:00 +10°C° 0 mm 3 mps 762 mmHg 50%
    16:00 +10°C° 0 mm 3 mps 762 mmHg 50%
    17:00 +9°C° 0 mm 3 mps 761 mmHg 54%
    18:00 +9°C° 0 mm 3 mps 761 mmHg 59%
    19:00 +8°C° 0 mm 2 mps 761 mmHg 63%
    20:00 +7°C° 0 mm 3 mps 761 mmHg 67%
    21:00 +7°C° 0 mm 3 mps 761 mmHg 71%
    22:00 +5°C° 0 mm 4 mps 761 mmHg 75%
    23:00 +5°C° 0 mm 4 mps 761 mmHg 76%

    27 February, Wednesday

    Time Temperature Precipitation Wind Pressure Humidity
    00:00 +4°C° 0 mm 4 mps 762 mmHg 78%
    01:00 +3°C° 0 mm 4 mps 762 mmHg 79%
    02:00 +3°C° 0 mm 3 mps 762 mmHg 80%
    03:00 +2°C° 0 mm 3 mps 762 mmHg 82%
    04:00 +2°C° 0 mm 3 mps 762 mmHg 83%
    05:00 +2°C° 0 mm 3 mps 762 mmHg 85%
    06:00 +2°C° 0 mm 2 mps 763 mmHg 86%
    07:00 +2°C° 0 mm 2 mps 763 mmHg 88%
    08:00 +3°C° 0 mm 3 mps 763 mmHg 80%
    09:00 +5°C° 0 mm 3 mps 763 mmHg 71%
    10:00 +6°C° 0 mm 4 mps 763 mmHg 62%
    11:00 +7°C° 0 mm 4 mps 763 mmHg 57%
    12:00 +8°C° 0 mm 4 mps 763 mmHg 51%
    13:00 +10°C° 0 mm 4 mps 762 mmHg 45%
    14:00 +10°C° 0 mm 4 mps 762 mmHg 45%
    15:00 +10°C° 0 mm 4 mps 762 mmHg 45%
    16:00 +10°C° 0 mm 4 mps 761 mmHg 45%
    17:00 +9°C° 0 mm 3 mps 761 mmHg 49%
    18:00 +8°C° 0 mm 2 mps 761 mmHg 53%
    19:00 +8°C° 0 mm 1 mps 762 mmHg 57%
    20:00 +7°C° 0 mm 1 mps 761 mmHg 57%
    21:00 +7°C° 0 mm 1 mps 761 mmHg 58%
    22:00 +7°C° 0 mm 1 mps 761 mmHg 59%
    23:00 +6°C° 0 mm 1 mps 761 mmHg 60%

    28 February, Thursday

    Time Temperature Precipitation Wind Pressure Humidity
    00:00 +5°C° 0 mm 2 mps 761 mmHg 61%
    01:00 +5°C° 0 mm 2 mps 761 mmHg 62%
    02:00 +5°C° 0 mm 2 mps 761 mmHg 63%
    03:00 +4°C° 0 mm 2 mps 760 mmHg 64%
    04:00 +3°C° 0 mm 3 mps 760 mmHg 66%
    05:00 +3°C° 0 mm 3 mps 760 mmHg 67%
    06:00 +3°C° 0 mm 3 mps 760 mmHg 69%
    07:00 +3°C° 0 mm 3 mps 759 mmHg 70%
    08:00 +5°C° 0 mm 3 mps 759 mmHg 66%
    09:00 +8°C° 0 mm 3 mps 759 mmHg 62%
    10:00 +10°C° 0 mm 3 mps 759 mmHg 58%
    11:00 +12°C° 0 mm 4 mps 758 mmHg 54%
    12:00 +14°C° 0 mm 4 mps 758 mmHg 50%
    13:00 +15°C° 0 mm 5 mps 757 mmHg 46%
    14:00 +15°C° 0 mm 4 mps 756 mmHg 45%
    15:00 +17°C° 0 mm 4 mps 756 mmHg 45%
    16:00 +17°C° 0 mm 3 mps 755 mmHg 45%
    17:00 +14°C° 0 mm 3 mps 755 mmHg 51%
    18:00 +13°C° 0 mm 3 mps 755 mmHg 56%
    19:00 +11°C° 0 mm 3 mps 755 mmHg 62%
    20:00 +11°C° 0 mm 4 mps 755 mmHg 63%
    21:00 +11°C° 0 mm 4 mps 755 mmHg 65%
    22:00 +10°C° 0 mm 4 mps 755 mmHg 66%
    23:00 +10°C° 0 mm 4 mps 755 mmHg 65%

    1 March, Friday

    Time Temperature Precipitation Wind Pressure Humidity
    00:00 +8°C° 0 mm 4 mps 755 mmHg 65%
    01:00 +8°C° 0 mm 4 mps 755 mmHg 64%
    02:00 +8°C° 0 mm 4 mps 755 mmHg 67%
    03:00 +7°C° 0 mm 4 mps 755 mmHg 70%
    04:00 +7°C° 0 mm 4 mps 755 mmHg 73%
    05:00 +6°C° 0 mm 4 mps 755 mmHg 77%
    06:00 +6°C° 0 mm 4 mps 755 mmHg 81%
    07:00 +5°C° 0 mm 4 mps 755 mmHg 85%
    08:00 +7°C° 0 mm 4 mps 755 mmHg 77%
    09:00 +10°C° 0 mm 4 mps 756 mmHg 70%
    10:00 +10°C° 0 mm 5 mps 756 mmHg 62%
    11:00 +12°C° 0 mm 5 mps 755 mmHg 57%
    12:00 +13°C° 0 mm 5 mps 755 mmHg 52%
    13:00 +14°C° 0 mm 5 mps 755 mmHg 46%
    14:00 +14°C° 0 mm 4 mps 755 mmHg 44%
    15:00 +14°C° 0 mm 4 mps 755 mmHg 41%
    16:00 +14°C° 0 mm 4 mps 755 mmHg 38%
    17:00 +13°C° 0 mm 4 mps 755 mmHg 44%
    18:00 +11°C° 0 mm 3 mps 755 mmHg 49%
    19:00 +10°C° 0 mm 3 mps 755 mmHg 54%
    20:00 +9°C° 0 mm 3 mps 755 mmHg 59%
    21:00 +8°C° 0 mm 2 mps 755 mmHg 63%
    22:00 +7°C° 0 mm 2 mps 755 mmHg 67%
    23:00 +7°C° 0 mm 2 mps 756 mmHg 69%
    Show more